FW3958 Weather Reports


time (UTC)temp
C
wind
direction
speed
KPH
gust
KPH
rain 1hr
cm
rain 24hr
cm
rain mn
cm
humidity
%
barometer
mb
20260502230051 18 319 6.4 12.9 0.00 0.00 0.00 80 1015.5
20260502224547 18 9 8.0 12.9 0.00 0.00 0.00 84 1015.6
20260502223044 17 9 3.2 11.3 0.00 0.00 0.00 85 1015.6
20260502221540 17 22 4.8 12.9 0.00 0.00 0.00 84 1016.1
20260502220039 16 29 12.9 19.3 0.00 0.00 0.00 86 1016.2
20260502214537 16 21 12.9 19.3 0.00 0.00 0.00 86 1016.4
20260502213036 16 6 9.7 19.3 0.00 0.00 0.00 86 1016.4
20260502211541 16 16 11.3 20.9 0.00 0.00 0.00 84 1016.5
20260502210033 16 335 9.7 19.3 0.00 0.00 0.00 87 1016.6
20260502204532 16 315 11.3 16.1 0.00 0.00 0.00 84 1016.8
20260502203031 17 355 6.4 14.5 0.00 0.00 0.00 84 1016.7
20260502201529 16 353 9.7 16.1 0.00 0.00 0.00 84 1016.8
20260502200032 16 335 6.4 16.1 0.00 0.00 0.00 84 1017.0
20260502194521 16 352 3.2 8.0 0.00 0.00 0.00 85 1017.4
20260502193019 15 21 3.2 11.3 0.00 0.00 0.00 87 1017.6
20260502191520 15 343 3.2 9.7 0.00 0.00 0.00 88 1017.8
20260502190012 14 300 4.8 9.7 0.00 0.00 0.00 87 1018.0
20260502184513 13 291 1.6 11.3 0.00 0.00 0.00 90 1018.2
20260502183006 13 288 3.2 9.7 0.00 0.00 0.00 90 1018.6
20260502181504 13 297 1.6 8.0 0.00 0.00 0.00 92 1018.6
20260502163059 11 16 0.0 0.0 0.00 0.00 0.00 96 1018.9
20260502161554 11 3 0.0 1.6 0.00 0.00 0.00 97 1018.7
20260502151548 10 289 0.0 0.0 0.00 0.00 0.00 99 1019.1
20260502123043 10 295 0.0 0.0 0.00 0.00 0.00 99 1019.2
20260502121528 10 295 0.0 0.0 0.00 0.00 0.00 99 1019.2
20260502114526 10 295 0.0 0.0 0.00 0.00 0.00 99 1019.1
20260502113025 10 295 0.0 0.0 0.00 0.00 0.00 99 1019.4
20260502111526 10 284 0.0 0.0 0.00 0.00 0.00 99 1019.6
20260502110026 10 284 0.0 0.0 0.00 0.00 0.00 99 1019.6
20260502104619 10 284 0.0 0.0 0.00 0.00 0.00 99 1019.8
20260502103019 10 284 0.0 0.0 0.00 0.00 0.00 99 1020.1
20260502101518 10 284 0.0 0.0 0.00 0.00 0.00 99 1020.1
20260502091513 10 288 0.0 0.0 0.00 0.00 0.00 99 1020.5
20260502071504 10 287 0.0 0.0 0.00 0.00 0.00 98 1021.1
20260502070003 10 288 0.0 0.0 0.00 0.00 0.00 98 1020.9
20260502064507 10 288 0.0 0.0 0.00 0.00 0.00 97 1021.0
20260502063007 10 288 0.0 0.0 0.00 0.00 0.00 98 1021.0
20260502061502 10 288 0.0 0.0 0.00 0.00 0.00 97 1020.8
20260502060201 10 288 0.0 0.0 0.00 0.00 0.00 97 1020.7
20260502054608 10 290 0.0 1.6 0.00 0.00 0.00 97 1020.8
20260502053104 10 290 0.0 1.6 0.00 0.00 0.00 96 1020.6
20260502051559 10 286 0.0 4.8 0.00 0.00 0.00 96 1020.8
20260502050158 10 279 0.0 3.2 0.00 0.00 0.00 96 1020.9
20260502044557 10 284 0.0 3.2 0.00 0.00 0.00 96 1021.1
20260502043059 10 284 1.6 6.4 0.00 0.00 0.00 96 1021.0
20260502041558 10 290 1.6 6.4 0.00 0.00 0.00 96 1020.8
20260502034559 10 294 3.2 8.0 0.00 0.00 0.00 95 1020.6
20260502034501 10 268 3.2 8.0 0.00 0.00 0.00 95 1020.6
20260502033055 11 284 0.0 9.7 0.00 0.00 0.00 95 1020.4
20260502031554 11 285 3.2 9.7 0.00 0.00 0.00 95 1020.5
20260502030055 11 307 4.8 9.7 0.00 0.00 0.00 94 1020.6
20260502024603 11 297 6.4 12.9 0.00 0.00 0.00 94 1020.4
20260502023053 11 302 3.2 12.9 0.00 0.00 0.00 94 1020.3
20260502021552 11 260 3.2 9.7 0.00 0.00 0.00 94 1020.3
20260502020051 11 279 3.2 9.7 0.00 0.00 0.00 95 1020.3
20260502014552 11 279 4.8 11.3 0.00 0.00 0.00 95 1020.2
20260502013050 11 268 4.8 11.3 0.00 0.00 0.00 94 1020.2
20260502011551 11 286 4.8 12.9 0.00 0.00 0.00 93 1020.1
20260502010051 11 300 3.2 9.7 0.00 0.00 0.00 94 1020.3
20260502004549 11 319 3.2 12.9 0.00 0.00 0.00 94 1020.3
20260502003048 11 295 4.8 12.9 0.00 0.00 0.00 94 1020.4
20260502001548 11 318 4.8 11.3 0.00 0.00 0.00 93 1020.4
20260502000056 11 319 6.4 14.5 0.00 0.00 0.00 93 1020.2
20260501234546 12 294 8.0 12.9 0.00 0.00 0.00 92 1020.2
20260501233045 12 340 6.4 14.5 0.00 0.00 0.00 93 1020.1
20260501231557 12 341 4.8 14.5 0.00 0.00 0.00 94 1020.3